[Iaude] MPEC X94: 2023 XZ1 [a=1.35,e=0.46,i=15.3,H=23.9]

mpec at marsden.cfa.harvard.edu mpec at marsden.cfa.harvard.edu
Wed Dec 6 01:07:53 EST 2023


M.P.E.C. 2023-X94                              Issued 2023 December 6, 06:06 UT

     The Minor Planet Electronic Circulars contain information on unusual
         minor planets, routine data on comets and natural satellites,
         and occasional editorial announcements.  They are published
    on behalf of Division F of the International Astronomical Union by the
          Minor Planet Center, Smithsonian Astrophysical Observatory,
                          Cambridge, MA 02138, U.S.A.
			  
             Prepared using the Tamkin Foundation Computer Network

                              MPC at CFA.HARVARD.EDU
            URL https://www.minorplanetcenter.net/    ISSN 1523-6714

                                    2023 XZ1                                    


Observations:
     K23X01Z* C2023 12 04.39171103 03 05.993+06 04 01.32         21.33wXEX094F51
     K23X01Z  C2023 12 04.40223603 03 05.488+06 05 12.90         21.39wXEX094F51
     K23X01Z  C2023 12 04.41275703 03 04.986+06 06 24.41         21.55wXEX094F51
     K23X01Z KC2023 12 05.13021303 02 49.178+07 25 00.62         21.27GVEX094I52
     K23X01Z KC2023 12 05.13351903 02 49.052+07 25 22.15         21.11GVEX094I52
     K23X01Z KC2023 12 05.13681103 02 48.930+07 25 42.89         21.86GVEX094I52
     K23X01Z KC2023 12 05.14009803 02 48.800+07 26 04.13         22.53GVEX094I52
     K23X01Z  C2023 12 05.28503603 02 45.254+07 41 30.30         21.15GVEX094F52
     K23X01Z  C2023 12 05.28585203 02 45.218+07 41 35.75         21.17GVEX094F52
     K23X01Z  C2023 12 06.22114303 02 24.577+09 15 20.79         21.2 GVEX094H01
     K23X01Z  C2023 12 06.22484703 02 24.444+09 15 42.25         21.1 GVEX094H01
     K23X01Z  C2023 12 06.23349203 02 24.146+09 16 32.22         21.2 GVEX094H01
     K23X01Z  C2023 12 06.24490603 02 23.748+09 17 37.80         21.2 GVEX094H01

Observer details:
F51 Pan-STARRS 1, Haleakala.  Observers J. Herman, T. Lowe, P. Minguez, A.
    Schultz, I. Smith.  Measurers K. Chambers, T. de Boer, J. Fairlamb, H.
    Gao, M. Huber, C.-C. Lin, E. Magnier, Y. Ramanjooloo, R. Wainscoat, R.
    Weryk.  1.8-m Ritchey-Chretien + CCD.
F52 Pan-STARRS 2, Haleakala.  Observers J. Herman, T. Lowe, P. Minguez, A.
    Schultz, I. Smith.  Measurers K. Chambers, T. de Boer, J. Fairlamb, H.
    Gao, M. Huber, C.-C. Lin, E. Magnier, Y. Ramanjooloo, R. Wainscoat, R.
    Weryk.  1.8-m Ritchey-Chretien + CCD.
H01 Magdalena Ridge Observatory, Socorro.  Observers W. H. Ryan, E. V. Ryan.
    Measurer W. H. Ryan.  2.4-m f/8.9 Ritchey-Chretien + CCD.
I52 Steward Observatory, Mt. Lemmon Station.  Observer G. J. Leonard.
    Measurers E. C. Beshore, D. Fay, J. B. Fazekas, D. C. Fuls, A. R. Gibbs,
    A. D. Grauer, H. Groeller, J. K. Hogan, R. A. Kowalski, S. M. Larson, G.
    J. Leonard, D. Rankin, R. L. Seaman, F. C. Shelly, K. W. Wierzchos.  1.0-m
    prime focus + CCD.

Orbital elements:
2023 XZ1                                                 Earth MOID = 0.0390 AU
Epoch 2023 Sept. 13.0 TT = JDT 2460200.5                MPC                     
M 353.59280              (2000.0)            P               Q                  
n   0.63125043     Peri.  254.92968     +0.82105106     +0.51129509             
a   1.3458653      Node    73.72586     -0.36683501     +0.81331350             
e   0.4632911      Incl.   15.33557     -0.43738683     +0.27766614             
P   1.56           H   23.93          G   0.15           U   9                  
Residuals in seconds of arc
231204 F51  0.0   0.1+    231205 I52  0.0   0.1-    231206 H01  0.1-  0.0
231204 F51  0.0   0.0     231205 I52  0.1-  0.2+    231206 H01  0.0   0.1+
231204 F51  0.1-  0.1-    231205 F52  0.2+  0.2-    231206 H01  0.1-  0.1-
231205 I52  0.1-  0.2-    231205 F52  0.1+  0.1+
231205 I52  0.1-  0.2+    231206 H01  0.0   0.1-

Ephemeris:
2023 XZ1                 a,e,i = 1.35, 0.46, 15                  q = 0.7223
Date    TT    R. A. (2000) Decl.     Delta      r    Elong.  Phase     V
2023 11 06    13 31 08.0 -74 45 31   0.1594  0.9217    59.8   111.6    24.0
...
2023 11 21    03 25 49.8 -43 03 28   0.09697 1.0358   117.1    58.1    21.0
...
2023 11 29    03 07 17.5 -07 17 22   0.1304  1.0978   146.6    29.6    21.0
...
2023 12 05    03 02 50.7 +07 11 23   0.1765  1.1439   151.6    24.2    21.6
2023 12 06    03 02 28.8 +08 54 06   0.1852  1.1515   151.5    24.1    21.7
2023 12 07    03 02 12.0 +10 28 01   0.1941  1.1592   151.2    24.2    21.8
...
2023 12 13    03 02 01.4 +17 32 19   0.2512  1.2044   147.7    25.9    22.5
...
2023 12 21    03 04 59.0 +23 11 25   0.3352  1.2634   141.5    29.0    23.3
...
2024 01 05    03 17 26.7 +28 42 40   0.5107  1.3685   130.0    33.4    24.5

A. U. Tomatic                (C) Copyright 2023 MPC           M.P.E.C. 2023-X94





More information about the Iaude mailing list